Regional Weather Roundup
Issued by NWS Nashville, TN

Home | Current Version | Previous Version | Text Only | Print | Product List | Glossary On
Versions: 1 2 3 4 5 6 7 8 9 10 11 12 13 14 15 16 17 18 19 20 21 22 23 24 25 26 27 28 29 30 31 32 33 34 35 36 37 38 39 40 41 42 43 44 45 46 47 48 49 50
000
ASUS44 KOHX 270615
RWROHX
MIDDLE TENNESSEE HOURLY WEATHER ROUNDUP
NATIONAL WEATHER SERVICE NASHVILLE TN
100 AM CDT MON APR 27 2015

NOTE: "FAIR" INDICATES FEW OR NO CLOUDS BELOW 12,000 FEET WITH
NO SIGNIFICANT WEATHER AND/OR OBSTRUCTIONS TO VISIBILITY.

* THESE REPORTS ARE NOT UNDER NWS QUALITY CONTROL AND MAY NOT
  REPORT WEATHER SUCH AS PRECIPITATION AND FOG.


TNZ005>011-023>034-057-059-062>066-078-080-270700
...NORTHERN MIDDLE TENNESSEE...

CITY           SKY/WX    TMP DP  RH WIND       PRES   REMARKS
CLARKSVILLE    CLEAR     48  40  73 N12       29.92S
CROSSVILLE     FOG       45  43  93 W6        29.87F VSB 1/4
NASHVILLE      CLEAR     49  46  90 N3        29.90S
SMYRNA         FOG       45  45 100 CALM      29.91S VSB 1/4
SPARTA         CLOUDY    41  39  93 CALM      29.87F VSB 1/4
$$
TNZ056-058-060-061-075>077-079-093>097-270700
...SOUTHERN MIDDLE TENNESSEE...

CITY           SKY/WX    TMP DP  RH WIND       PRES   REMARKS
COLUMBIA       CLEAR     43  32  65 CALM      29.88S
MCMINNVILLE    CLOUDY    43  43 100 CALM      29.88S VSB 1/4
SHELBYVILLE    CLEAR     43  43 100 CALM      29.89F
TULLAHOMA      CLEAR     45  45 100 CALM      29.88S
WINCHESTER     CLEAR     45  43  93 CALM      29.88S
$$


...KEY TO REMARKS...
VSB - VISIBILITY IN MILES
WCI - WIND CHILL INDEX
HX  - HEAT INDEX




USA.gov is the U.S. government's official web portal to all federal, state and local government web resources and services.